Flag for Portugal Weather past 2 weeks in Cascais, Portugal

Now
54 °F

Passing clouds.


Feels Like: 51 °F
Forecast: 54 / 61 °F
Wind: 8 mph from Northwest

Location: Lisbon Portela Airport

Current Time: Mar 1, 2015 at 12:42:22 AM

Latest Report: Feb 28, 2015 at 11:30 PM


Visibility: N/A

Pressure: 30.39 "Hg

Humidity: 88%

Dew point: 50 °F

Location of CascaisLocation

Historic Weather in Cascais — Graph

°F

Cascais temperature yesterday

Maximum temperature yesterday: 59 °F (at 1:00 PM)
Minimum temperature yesterday: 50 °F (at 12:00 AM)
Average temperature yesterday: 55 °F

Past Weeks' High & Low Weather Summary

 TemperatureHumidityPressure
High63 °F (Feb 19, 3:00 PM)100% (Feb 14, 7:00 PM)30.60 "Hg (Feb 14, 7:00 PM)
Low45 °F (Feb 18, 7:00 AM)38% (Feb 17, 7:30 PM)29.92 "Hg (Feb 21, 4:00 AM)
Average53 °F76%30.29 "Hg
* Reported Feb 13 11:00 PM — Feb 28 11:00 PM, Cascais, Weather by CustomWeather, © 2015

Note: Actual official high and low records may vary slightly from our data, if they occured in-between our weather recording intervals... More about our weather records

Advertising

Cascais weather history for previous 24 hours

 ConditionsComfort  
Time TempWeatherWind HumidityBarometerVisibility
11:00 PM
Sat, Feb 28
54 °FClear.9 mph88%30.39 "Hg10 mi
10:30 PM54 °FClear.8 mph88%30.39 "Hg10 mi
10:00 PM54 °FClear.7 mph88%30.39 "Hg10 mi
9:00 PM54 °FPassing clouds.7 mph88%30.39 "HgN/A
8:30 PM54 °FPassing clouds.8 mph88%30.39 "HgN/A
8:00 PM55 °FPassing clouds.7 mph82%30.39 "HgN/A
7:30 PM55 °FPassing clouds.7 mph82%30.39 "HgN/A
7:00 PM55 °FPassing clouds.8 mph82%30.39 "HgN/A
6:30 PM55 °FPassing clouds.7 mph82%30.36 "HgN/A
6:00 PM57 °FPassing clouds.9 mph82%30.36 "HgN/A
5:30 PM57 °FPassing clouds.12 mph82%30.36 "HgN/A
5:00 PM57 °FScattered clouds.10 mph82%30.36 "HgN/A
4:30 PM57 °FBroken clouds.14 mph82%30.36 "HgN/A
4:00 PM59 °FBroken clouds.12 mph82%30.36 "HgN/A
3:30 PM57 °FBroken clouds.13 mph88%30.36 "HgN/A
3:00 PM59 °FPartly sunny.13 mph82%30.36 "HgN/A
2:30 PM59 °FBroken clouds.13 mph77%30.36 "HgN/A
2:00 PM59 °FPartly sunny.12 mph77%30.36 "HgN/A
1:30 PM59 °FBroken clouds.10 mph77%30.39 "HgN/A
1:00 PM59 °FBroken clouds.14 mph82%30.39 "HgN/A
12:30 PM57 °FBroken clouds.13 mph88%30.39 "HgN/A
12:00 PM57 °FBroken clouds.15 mph88%30.39 "HgN/A
11:30 AM57 °FPartly sunny.13 mph88%30.39 "HgN/A
11:00 AM57 °FPartly sunny.10 mph82%30.39 "HgN/A
10:30 AM57 °FBroken clouds.10 mph88%30.39 "HgN/A
10:00 AM57 °FScattered clouds.9 mph88%30.39 "HgN/A
9:30 AM55 °FBroken clouds.12 mph94%30.39 "HgN/A
9:00 AM54 °FBroken clouds.5 mph94%30.39 "Hg5 mi
8:30 AM55 °FDrizzle. Fog.6 mph88%30.39 "Hg3 mi
8:00 AM55 °FPartly sunny.7 mph88%30.39 "HgN/A
7:30 AM55 °FPartly sunny.9 mph88%30.36 "HgN/A
7:00 AM55 °FPassing clouds.8 mph88%30.36 "HgN/A
6:30 AM54 °FPassing clouds.7 mph94%30.36 "HgN/A
6:00 AM54 °FPassing clouds.7 mph94%30.36 "HgN/A
5:30 AM54 °FPassing clouds.7 mph88%30.36 "HgN/A
5:00 AM54 °FPassing clouds.9 mph88%30.36 "HgN/A
4:30 AM52 °FPassing clouds.8 mph94%30.36 "HgN/A
4:00 AM52 °FPassing clouds.8 mph88%30.36 "HgN/A
3:30 AM52 °FPassing clouds.9 mph88%30.36 "HgN/A
3:00 AM52 °FPassing clouds.3 mph88%30.36 "HgN/A
2:30 AM52 °FPassing clouds.3 mph88%30.39 "HgN/A
2:00 AM50 °FPassing clouds.3 mph88%30.39 "HgN/A
1:30 AM50 °FPassing clouds.5 mph88%30.39 "HgN/A
1:00 AM50 °FPassing clouds.18 mph88%30.39 "HgN/A
12:46 AM50 °FPassing clouds.18 mph88%30.39 "HgN/A
12:00 AM50 °FPassing clouds.21 mph82%30.39 "HgN/A
Weather by CustomWeather, © 2015

See weather overviewHow to use our weather pages